Regional Weather Roundup
Issued by NWS

Home | Current Version | Previous Version | Graphics & Text | Print | Product List | Glossary On
Versions: 1 2 3 4 5 6 7 8 9 10 11 12 13 14 15 16 17 18 19 20 21 22 23 24 25 26 27 28 29 30 31 32 33 34 35 36 37 38 39 40 41 42 43 44 45 46 47 48 49 50
000
ASUS43 KIND 231109
RWRIN

WEATHER ROUNDUP FOR INDIANA
NATIONAL WEATHER SERVICE INDIANAPOLIS IN
700 AM EDT SAT AUG 23 2014

NOTE: "FAIR" INDICATES FEW OR NO CLOUDS BELOW 12,000 FEET WITH NO
SIGNIFICANT WEATHER AND/OR OBSTRUCTIONS TO VISIBILITY.

* - STATION DOES NOT REPORT WEATHER SUCH AS PRECIPITATION OR FOG.

+ - STATION NOT QUALITY CONTROLLED BY THE NATIONAL WEATHER SERVICE.
    USE DATA WITH CAUTION...ESPECIALLY DEWPOINT AND RELATIVE
    HUMIDITY OBSERVATIONS.

INZ001>003-010>013-019-020-231200-
NORTHWEST INDIANA

CITY           SKY/WX    TMP DP  RH WIND       PRES   REMARKS
GARY /AIRPORT/ PTCLDY    70  70 100 CALM      29.98S FOG
KNOX *+        MOCLDY    66  65  94 CALM      29.98S VSB 1/4
LA PORTE +     FOG       67  67 100 CALM      30.00R VSB 3/4
MICHIGAN CITY+ FOG       68  68 100 CALM      29.99S VSB 3/4
MONTICELLO +   FOG       67  67 100 CALM      29.98S VSB 3/4
RENSSELAER +   FOG       64  64 100 CALM      29.99R VSB 1/4
VALPARAISO     FOG       68  66  93 E3        29.99S VSB 1/2

$$

LMZ046-743>745-231200-
SOUTHERN LAKE MICHIGAN

STATION/POSITION TIME  TEMP WIND        PRES
                       AIR  DIR/SP/G
                 (UTC) (F)  (DEG/KT/KT) (MB)
MICHIGAN CITY    1100   73  130/  3/  4   N/A

$$

INZ004-005-014>016-021>024-231200-
NORTH CENTRAL INDIANA

CITY           SKY/WX    TMP DP  RH WIND       PRES   REMARKS
GOSHEN         CLOUDY    74  72  93 SE5       30.00S FOG
LOGANSPORT +   FOG       66  64  94 CALM      30.01R VSB<1/4
PERU/GRISSOM   FOG       68 N/A N/A CALM      30.00R VSB 1/8
ROCHESTER +    MOCLDY    70  70 100 CALM      30.00S FOG
SOUTH BEND     FOG       74  72  93 E5        30.00R VSB 1/2
WARSAW +       FOG       68  68 100 CALM      30.00S VSB 1/2

$$

INZ006>009-017-018-025>027-231200-
NORTHEAST INDIANA

CITY           SKY/WX    TMP DP  RH WIND       PRES   REMARKS
ANGOLA *+      CLOUDY    70  63  78 SE5       30.02R
AUBURN +         N/A     70  68  94 CALM      30.03R FOG
FORT WAYNE     FOG       69  69 100 CALM      30.01R VSB 1/8
HUNTINGTON +   FOG       69  69 100 CALM      30.01R VSB 1/4

$$

INZ028-029-035-036-043>045-051>053-231200-
WEST CENTRAL INDIANA

CITY           SKY/WX    TMP DP  RH WIND       PRES   REMARKS
GREENCASTLE +  FOG       70  70 100 CALM      30.00R VSB 1
LAFAYETTE      PTCLDY    69  69 100 CALM      29.98S
TERRE HAUTE    MOCLDY    71  70  96 CALM      29.98S FOG

$$

INZ030>032-037>040-046>048-054>057-064-065-231200-
CENTRAL INDIANA

CITY           SKY/WX    TMP DP  RH WIND       PRES   REMARKS
CP ATTERBURY + PTCLDY    66  64  94 CALM      30.00R FOG
COLUMBUS       FOG       68  68 100 CALM      29.99  VSB 3/4
FRANKFORT +    MOCLDY   N/A N/A N/A CALM      30.01S HAZE
INDIANAPOLIS   MOCLDY    71  69  93 NE7       29.99R
-EAGLE CREEK   PTCLDY    70  68  93 E3        29.99R
KOKOMO *+      CLOUDY    66  64  94 CALM      30.00S VSB<1/4
MARION +       FOG       66  65  99 CALM      30.01S VSB 1/2
MT COMFORT *+  CLOUDY    64 N/A N/A CALM      30.01R VSB 1/4
SHELBYVILLE    FOG       68  66  93 CALM      30.00R VSB 1/4
ZIONSVILLE +   CLEAR     68  65  91 CALM      30.01S

$$

INZ033-034-041-042-049-050-058-059-231200-
EAST CENTRAL INDIANA

CITY           SKY/WX    TMP DP  RH WIND       PRES   REMARKS
MUNCIE         FOG       68  66  93 CALM      30.01R VSB 3/4

$$

INZ060-061-067>069-081>083-085>088-231200-
SOUTHWEST INDIANA

CITY           SKY/WX    TMP DP  RH WIND       PRES   REMARKS
EVANSVILLE     MOCLDY    76  70  82 CALM      29.97S
WASHINGTON +   PTCLDY    72  72 100 CALM      29.97R

$$

INZ062-063-066-070>080-084-089>092-231200-
SOUTH CENTRAL AND SOUTHEAST INDIANA

CITY           SKY/WX    TMP DP  RH WIND       PRES   REMARKS
BLOOMINGTON    MOCLDY    72  69  90 CALM      30.00R FOG
SEYMOUR +      HAZE      64  59  82 CALM      29.99  VSB 3/4

$$



USA.gov is the U.S. government's official web portal to all federal, state and local government web resources and services.